Location: The Saddle
(36.8333°N, 80.3417°W)
Time: 15:54:55
(UTC-05:00)

A-11 Canister half - Pass Details

Date: 15 December 2023
Orbit: 1526 x 1682 km, 47.3° (Epoch: 01 March)

Event Time Altitude Azimuth Distance (km) Brightness Sun altitude
Rises 00:03:31 0° 301° (WNW) 4,922 - -76.1°
Reaches altitude 10° 00:06:52 10° 295° (WNW) 3,919 - -76.3°
Maximum altitude 00:16:12 46° 227° (SW) 2,095 - -76.4°
Drops below altitude 10° 00:25:15 10° 158° (SSE) 3,798 - -76.3°
Sets 00:28:27 0° 152° (SSE) 4,759 - -76.2°
